Regional Weather Roundup
Issued by NWS

Home | Current Version | Previous Version | Graphics & Text | Print | Product List | Glossary On
Versions: 1 2 3 4 5 6 7 8 9 10 11 12 13 14 15 16 17 18 19 20 21 22 23 24 25 26 27 28 29 30 31 32 33 34 35 36 37 38 39 40 41 42 43 44 45 46 47 48 49 50
818
ASUS44 KJAN 271003
RWRMS

MISSISSIPPI HOURLY WEATHER ROUNDUP
NATIONAL WEATHER SERVICE JACKSON MS
400 AM CST FRI FEB 27 2015

NOTE: "FAIR: INDICATES FEW OR NO CLOUDS BELOW 12,000 FEET WITH NO
SIGNIFICANT WEATHER AND/OR OBSTRUCTIONS TO VISIBILITY.

MSZ001>002-007>008-010>013-018>021-025>028-034>036-271100-
NORTHWEST MISSISSIPPI

CITY           SKY/WX    TMP DP  RH WIND       PRES   REMARKS
CLARKSDALE     CLOUDY    27  19  74 N18G24    30.48R WCI  13
CLEVELAND      CLOUDY    28  21  77 NE17      30.46R WCI  15
GREENWOOD        N/A    N/A N/A N/A MISG      30.44R
GREENVILLE     CLOUDY    29  19  66 NE17      30.45R WCI  17
OLIVE BRANCH   CLOUDY    23  18  80 N13       30.47R WCI  11
OXFORD         CLOUDY    25  16  68 N14       30.45R WCI  13
TUNICA         MOSUNNY   27  18  69 N20       30.50R WCI  13
$$

MSZ003>006-009-014>017-022>024-029>033-037>039-271100-
NORTHEAST MISSISSIPPI

CITY           SKY/WX    TMP DP  RH WIND       PRES   REMARKS
COLUMBUS AFB   CLOUDY    31  22  69 N10G21    30.39R WCI  22
CORINTH        MIX PCPN  27  18  69 N12G17    30.43R WCI  16
GOLDN TRIANGLE CLOUDY    30  21  69 N10       30.38R WCI  21
STARKVILLE     CLOUDY    30  23  74 N6        30.41R WCI  24
TUPELO         CLOUDY    28  19  69 NE17      30.42R WCI  16
$$

MSZ040-058-271100-
CENTRAL MISSISSIPPI

CITY           SKY/WX    TMP DP  RH WIND       PRES   REMARKS
JACKSON INTL   CLOUDY    32  26  78 N12       30.36S WCI  23
JACKSON HAWKNS CLOUDY    31  24  75 N8        30.38R WCI  23
MERIDIAN KEY   CLOUDY    31  26  82 N12       30.36R WCI  22
MERIDIAN NAS   CLOUDY    31  25  78 N10       30.37R WCI  22
VICKSBURG      CLOUDY    31  23  72 N17       30.43R WCI  19
$$

MSZ059>079-271100-
SOUTH MISSISSIPPI

CITY           SKY/WX    TMP DP  RH WIND       PRES   REMARKS
BROOKHAVEN     CLOUDY    34  30  86 N8        30.35S WCI  27
HATTIESBURG    CLOUDY    34  30  85 N3        30.35R
MCCOMB         CLOUDY    34  27  75 NE9       30.31F WCI  27
NATCHEZ        CLOUDY    34  27  75 N10       30.37R WCI  26
PINE BELT      CLOUDY    34  27  75 N10       30.34R WCI  26
$$

MSZ080>082-271100-
COASTAL MISSISSIPPI

CITY           SKY/WX    TMP DP  RH WIND       PRES   REMARKS
BILOXI         PTCLDY    34  30  87 N10       30.32S WCI  26
PASCAGOULA     PTCLDY    34  30  85 N10       30.32S WCI  26
GULFPORT       CLEAR     33  28  81 N8        30.33S WCI  26
$$



USA.gov is the U.S. government's official web portal to all federal, state and local government web resources and services.